QPF
0.06 0.02 0.02 0.02 0.03 0.03 0.03 0.03 0.04 0.04 0.04 0.03 0.02 0.02 0.01 0.04 0.05 0.05 0.06 0.08 0.09 0.10 0.12 0.14 0.14 0.12 0.10 0.09 0.07 0.07 0.07 0.05 0.04 0.04 0.05 0.06 0.06 0.05 0.04 0.04 0.03 0.05 0.05
0.10 0.03 0.02 0.02 0.02 0.03 0.03 0.03 0.04 0.04 0.04 0.03 0.02 0.02 0.02 0.06 0.06 0.05 0.06 0.06 0.07 0.08 0.08 0.09 0.10 0.10 0.10 0.10 0.10 0.08 0.07 0.06 0.04 0.05 0.06 0.06 0.06 0.05 0.04 0.04 0.04 0.05 0.05
0.12 0.05 0.03 0.04 0.03 0.03 0.03 0.04 0.02 0.03 0.03 0.02 0.02 0.03 0.03 0.05 0.05 0.05 0.06 0.05 0.04 0.05 0.05 0.05 0.06 0.08 0.09 0.10 0.09 0.09 0.08 0.09 0.08 0.07 0.07 0.07 0.06 0.05 0.05 0.04 0.04 0.05 0.05
0.07 0.06 0.04 0.04 0.04 0.03 0.04 0.04 0.03 0.03 0.03 0.03 0.02 0.03 0.03 0.04 0.03 0.04 0.05 0.05 0.04 0.03 0.03 0.03 0.04 0.04 0.04 0.05 0.06 0.07 0.07 0.07 0.06 0.06 0.06 0.06 0.04 0.03 0.03 0.03 0.03 0.04 0.05
0.06 0.05 0.05 0.04 0.03 0.03 0.03 0.02 0.03 0.04 0.04 0.03 0.03 0.03 0.03 0.04 0.02 0.02 0.03 0.04 0.04 0.03 0.03 0.03 0.03 0.03 0.04 0.04 0.05 0.06 0.05 0.04 0.04 0.03 0.03 0.03 0.03 0.02 0.03 0.03 0.03 0.03 0.04
0.05 0.05 0.05 0.04 0.02 0.02 0.02 0.02 0.03 0.03 0.03 0.02 0.02 0.01 0.02 0.02 0.02 0.03 0.02 0.03 0.04 0.04 0.02 0.02 0.02 0.03 0.04 0.04 0.04 0.04 0.02 0.02 0.03 0.03 0.03 0.02 0.02 0.02 0.03 0.03 0.03 0.02 0.03
0.05 0.07 0.05 0.03 0.02 0.02 0.01 0.02 0.03 0.02 0.02 0.02 0.02 0.01 0.01 0.01 0.02 0.02 0.01 0.01 0.02 0.03 0.02 0.02 0.03 0.04 0.04 0.04 0.03 0.02 0.02 0.01 0.02 0.02 0.02 0.02 0.02 0.02 0.02 0.02 0.03 0.02 0.03
0.04 0.08 0.08 0.05 0.03 0.03 0.02 0.02 0.02 0.02 0.01 0.01 0.01 0.02 0.02 0.02 0.03 0.02 0.01 0.01 0.02 0.02 0.03 0.03 0.03 0.04 0.04 0.05 0.05 0.04 0.02 0.01 0.02 0.02 0.01 0.01 0.02 0.02 0.01 0.02 0.02 0.03 0.03
0.03 0.06 0.09 0.07 0.06 0.03 0.02 0.02 0.02 0.02 0.02 0.02 0.01 0.02 0.03 0.03 0.03 0.02 0.01 0.01 0.01 0.01 0.02 0.03 0.03 0.04 0.05 0.04 0.04 0.06 0.04 0.01 0.02 0.02 0.01 0.01 0.02 0.02 0.01 0.01 0.01 0.02 0.02
0.05 0.06 0.06 0.08 0.06 0.03 0.02 0.02 0.02 0.03 0.03 0.02 0.02 0.02 0.03 0.03 0.03 0.03 0.02 0.01 0.01 0.01 0.01 0.02 0.03 0.04 0.05 0.06 0.05 0.05 0.06 0.03 0.02 0.02 0.02 0.02 0.02 0.02 0.02 0.01 0.02 0.02 0.03
0.03 0.06 0.06 0.08 0.06 0.03 0.02 0.01 0.02 0.03 0.02 0.02 0.02 0.02 0.02 0.02 0.02 0.02 0.02 0.02 0.02 0.01 0.01 0.01 0.02 0.02 0.03 0.05 0.06 0.05 0.06 0.05 0.03 0.02 0.02 0.02 0.02 0.03 0.02 0.02 0.02 0.03 0.04
0.03 0.04 0.06 0.06 0.06 0.04 0.02 0.01 0.01 0.02 0.02 0.02 0.02 0.02 0.02 0.02 0.02 0.02 0.02 0.02 0.02 0.01 0.01 0.00 0.01 0.01 0.02 0.03 0.04 0.05 0.05 0.06 0.05 0.03 0.03 0.03 0.03 0.03 0.04 0.03 0.03 0.03 0.03
0.03 0.04 0.04 0.05 0.05 0.04 0.02 0.01 0.01 0.02 0.02 0.02 0.01 0.01 0.01 0.01 0.01 0.01 0.02 0.02 0.01 0.01 0.00 0.00 0.00 0.01 0.01 0.02 0.03 0.03 0.03 0.04 0.06 0.06 0.05 0.05 0.04 0.04 0.05 0.05 0.03 0.03 0.03
0.04 0.05 0.04 0.03 0.04 0.04 0.03 0.02 0.01 0.01 0.02 0.02 0.01 0.01 0.02 0.01 0.01 0.01 0.01 0.01 0.01 0.01 0.01 0.00 0.00 0.01 0.01 0.01 0.01 0.02 0.02 0.02 0.04 0.06 0.05 0.04 0.04 0.05 0.06 0.06 0.05 0.04 0.03
0.03 0.05 0.04 0.04 0.03 0.04 0.04 0.03 0.02 0.02 0.02 0.02 0.01 0.01 0.02 0.02 0.01 0.01 0.01 0.01 0.02 0.02 0.02 0.02 0.01 0.01 0.01 0.00 0.01 0.01 0.02 0.01 0.02 0.03 0.05 0.06 0.06 0.07 0.07 0.08 0.08 0.07 0.06
0.01 0.03 0.04 0.04 0.04 0.03 0.04 0.04 0.04 0.02 0.02 0.02 0.02 0.01 0.01 0.01 0.01 0.01 0.01 0.01 0.01 0.01 0.02 0.03 0.02 0.01 0.01 0.00 0.01 0.01 0.01 0.01 0.01 0.02 0.03 0.05 0.06 0.07 0.07 0.08 0.08 0.08 0.08
0.01 0.02 0.03 0.04 0.04 0.04 0.03 0.04 0.03 0.04 0.03 0.03 0.02 0.02 0.01 0.01 0.02 0.02 0.01 0.01 0.01 0.02 0.02 0.02 0.03 0.03 0.02 0.01 0.01 0.01 0.01 0.01 0.01 0.02 0.02 0.03 0.04 0.05 0.05 0.05 0.05 0.06 0.10
0.01 0.01 0.02 0.03 0.04 0.05 0.04 0.03 0.03 0.03 0.04 0.04 0.03 0.02 0.02 0.02 0.02 0.02 0.01 0.01 0.02 0.03 0.03 0.02 0.02 0.03 0.03 0.02 0.02 0.01 0.01 0.01 0.01 0.01 0.01 0.02 0.02 0.03 0.03 0.04 0.04 0.05 0.11
0.01 0.01 0.02 0.03 0.04 0.04 0.05 0.04 0.03 0.03 0.03 0.03 0.03 0.02 0.02 0.02 0.02 0.02 0.02 0.03 0.03 0.03 0.03 0.03 0.02 0.02 0.03 0.03 0.02 0.01 0.01 0.00 0.00 0.00 0.00 0.01 0.01 0.01 0.01 0.03 0.04 0.06 0.08
0.01 0.01 0.01 0.03 0.04 0.05 0.05 0.06 0.05 0.03 0.03 0.03 0.03 0.02 0.02 0.02 0.02 0.02 0.02 0.03 0.04 0.04 0.04 0.04 0.03 0.02 0.02 0.03 0.03 0.02 0.01 0.01 0.01 0.00 0.01 0.01 0.01 0.01 0.01 0.02 0.05 0.06 0.06
0.02 0.02 0.02 0.02 0.04 0.06 0.05 0.06 0.06 0.05 0.03 0.03 0.04 0.03 0.02 0.02 0.02 0.03 0.02 0.02 0.02 0.03 0.04 0.04 0.03 0.03 0.03 0.03 0.02 0.02 0.01 0.01 0.01 0.01 0.01 0.00 0.00 0.01 0.01 0.02 0.05 0.06 0.04
0.02 0.02 0.02 0.02 0.03 0.06 0.06 0.05 0.05 0.05 0.04 0.03 0.04 0.04 0.03 0.03 0.02 0.02 0.02 0.02 0.02 0.03 0.03 0.03 0.03 0.03 0.03 0.02 0.02 0.02 0.01 0.01 0.00 0.01 0.01 0.01 0.01 0.01 0.01 0.02 0.04 0.06 0.06
0.03 0.02 0.02 0.02 0.03 0.06 0.07 0.06 0.05 0.05 0.04 0.03 0.03 0.04 0.04 0.03 0.02 0.02 0.02 0.02 0.02 0.02 0.03 0.03 0.03 0.03 0.03 0.02 0.02 0.02 0.02 0.01 0.01 0.00 0.01 0.01 0.01 0.01 0.01 0.01 0.02 0.05 0.07
0.02 0.02 0.02 0.02 0.03 0.06 0.08 0.06 0.05 0.04 0.04 0.03 0.03 0.03 0.04 0.03 0.02 0.02 0.02 0.01 0.02 0.02 0.02 0.02 0.03 0.03 0.04 0.04 0.04 0.03 0.03 0.02 0.01 0.00 0.00 0.01 0.01 0.01 0.01 0.01 0.02 0.04 0.07
0.02 0.02 0.02 0.02 0.03 0.05 0.09 0.06 0.06 0.05 0.04 0.03 0.03 0.03 0.03 0.03 0.03 0.04 0.03 0.02 0.01 0.02 0.02 0.02 0.02 0.04 0.04 0.05 0.05 0.05 0.04 0.03 0.02 0.01 0.01 0.01 0.01 0.01 0.01 0.01 0.02 0.03 0.05
0.01 0.02 0.02 0.02 0.03 0.04 0.07 0.05 0.05 0.05 0.06 0.05 0.03 0.02 0.04 0.04 0.04 0.04 0.03 0.02 0.02 0.03 0.03 0.02 0.02 0.03 0.04 0.04 0.04 0.04 0.04 0.03 0.02 0.02 0.01 0.01 0.01 0.02 0.02 0.02 0.03 0.03 0.04
MSLP
1012.97 1012.91 1012.81 1012.70 1012.60 1012.54 1012.54 1012.62 1012.76 1012.94 1013.13 1013.32 1013.48 1013.61 1013.72 1013.81 1013.90 1014.00 1014.08 1014.12 1014.09 1013.97 1013.74 1013.40 1012.99 1012.53 1012.10 1011.75 1011.52 1011.43 1011.47 1011.64 1011.89 1012.17 1012.46 1012.70 1012.90 1013.04 1013.14 1013.20 1013.23 1013.27 1013.30
1013.38 1013.30 1013.21 1013.13 1013.07 1013.07 1013.14 1013.27 1013.45 1013.66 1013.87 1014.06 1014.21 1014.33 1014.42 1014.50 1014.57 1014.65 1014.72 1014.78 1014.78 1014.72 1014.58 1014.35 1014.06 1013.73 1013.40 1013.11 1012.90 1012.78 1012.75 1012.81 1012.92 1013.05 1013.18 1013.30 1013.38 1013.43 1013.45 1013.44 1013.43 1013.41 1013.41
1013.91 1013.81 1013.72 1013.66 1013.65 1013.70 1013.82 1013.99 1014.20 1014.42 1014.63 1014.81 1014.94 1015.02 1015.09 1015.13 1015.18 1015.23 1015.29 1015.35 1015.37 1015.35 1015.28 1015.14 1014.94 1014.71 1014.47 1014.24 1014.05 1013.91 1013.82 1013.78 1013.78 1013.79 1013.82 1013.83 1013.84 1013.83 1013.81 1013.77 1013.73 1013.69 1013.66
1014.53 1014.41 1014.32 1014.28 1014.29 1014.38 1014.53 1014.72 1014.94 1015.16 1015.35 1015.49 1015.59 1015.64 1015.67 1015.69 1015.70 1015.73 1015.77 1015.81 1015.84 1015.85 1015.82 1015.74 1015.61 1015.46 1015.28 1015.10 1014.93 1014.78 1014.65 1014.55 1014.47 1014.40 1014.35 1014.31 1014.27 1014.24 1014.20 1014.16 1014.11 1014.06 1014.01
1015.19 1015.06 1014.96 1014.92 1014.95 1015.05 1015.21 1015.40 1015.61 1015.80 1015.96 1016.06 1016.13 1016.15 1016.15 1016.14 1016.14 1016.15 1016.17 1016.20 1016.22 1016.23 1016.22 1016.18 1016.10 1016.00 1015.88 1015.74 1015.59 1015.44 1015.29 1015.15 1015.02 1014.91 1014.81 1014.73 1014.68 1014.63 1014.59 1014.56 1014.51 1014.46 1014.40
1015.83 1015.67 1015.57 1015.52 1015.56 1015.66 1015.81 1015.99 1016.16 1016.32 1016.43 1016.51 1016.54 1016.54 1016.53 1016.51 1016.50 1016.50 1016.51 1016.53 1016.54 1016.55 1016.54 1016.52 1016.47 1016.41 1016.32 1016.22 1016.10 1015.96 1015.81 1015.66 1015.51 1015.36 1015.24 1015.14 1015.06 1015.01 1014.97 1014.93 1014.89 1014.83 1014.75
1016.39 1016.22 1016.10 1016.06 1016.09 1016.18 1016.32 1016.46 1016.60 1016.72 1016.79 1016.83 1016.84 1016.83 1016.82 1016.81 1016.81 1016.81 1016.83 1016.84 1016.85 1016.84 1016.83 1016.81 1016.78 1016.74 1016.69 1016.63 1016.54 1016.42 1016.29 1016.14 1015.97 1015.82 1015.67 1015.54 1015.45 1015.37 1015.31 1015.26 1015.20 1015.12 1015.02
1016.84 1016.66 1016.55 1016.51 1016.55 1016.63 1016.75 1016.86 1016.97 1017.04 1017.07 1017.09 1017.09 1017.08 1017.08 1017.10 1017.12 1017.14 1017.16 1017.17 1017.17 1017.16 1017.13 1017.11 1017.09 1017.07 1017.04 1017.01 1016.96 1016.88 1016.77 1016.63 1016.46 1016.29 1016.12 1015.97 1015.83 1015.72 1015.63 1015.54 1015.44 1015.34 1015.21
1017.17 1017.01 1016.93 1016.91 1016.96 1017.04 1017.14 1017.24 1017.31 1017.34 1017.35 1017.35 1017.34 1017.35 1017.37 1017.41 1017.46 1017.51 1017.54 1017.55 1017.54 1017.50 1017.46 1017.43 1017.40 1017.39 1017.39 1017.39 1017.37 1017.33 1017.25 1017.13 1016.97 1016.79 1016.59 1016.40 1016.23 1016.07 1015.92 1015.79 1015.64 1015.50 1015.33
1017.41 1017.30 1017.26 1017.28 1017.35 1017.45 1017.55 1017.63 1017.68 1017.69 1017.68 1017.66 1017.66 1017.68 1017.73 1017.80 1017.87 1017.93 1017.97 1017.97 1017.94 1017.88 1017.81 1017.76 1017.72 1017.71 1017.72 1017.74 1017.76 1017.75 1017.69 1017.59 1017.45 1017.26 1017.05 1016.83 1016.62 1016.41 1016.21 1016.03 1015.84 1015.64 1015.43
1017.60 1017.56 1017.58 1017.65 1017.77 1017.89 1018.00 1018.07 1018.11 1018.10 1018.08 1018.06 1018.06 1018.09 1018.16 1018.24 1018.33 1018.40 1018.43 1018.41 1018.35 1018.26 1018.16 1018.07 1018.01 1017.99 1018.00 1018.03 1018.07 1018.08 1018.05 1017.98 1017.84 1017.66 1017.45 1017.21 1016.97 1016.74 1016.51 1016.28 1016.05 1015.81 1015.56
1017.76 1017.80 1017.89 1018.03 1018.19 1018.35 1018.47 1018.55 1018.58 1018.57 1018.54 1018.52 1018.52 1018.56 1018.64 1018.73 1018.82 1018.89 1018.90 1018.85 1018.75 1018.62 1018.47 1018.33 1018.24 1018.19 1018.19 1018.22 1018.26 1018.29 1018.28 1018.22 1018.10 1017.94 1017.73 1017.51 1017.27 1017.03 1016.79 1016.55 1016.29 1016.02 1015.73
1017.88 1018.00 1018.17 1018.37 1018.59 1018.77 1018.92 1019.00 1019.03 1019.02 1018.99 1018.98 1018.99 1019.04 1019.12 1019.22 1019.31 1019.35 1019.34 1019.26 1019.11 1018.93 1018.73 1018.55 1018.40 1018.32 1018.28 1018.29 1018.32 1018.35 1018.34 1018.30 1018.20 1018.06 1017.89 1017.69 1017.48 1017.27 1017.05 1016.82 1016.56 1016.27 1015.95
1017.93 1018.14 1018.38 1018.64 1018.89 1019.10 1019.27 1019.36 1019.40 1019.40 1019.38 1019.37 1019.40 1019.46 1019.56 1019.66 1019.74 1019.77 1019.73 1019.61 1019.43 1019.20 1018.95 1018.71 1018.52 1018.38 1018.31 1018.28 1018.28 1018.28 1018.27 1018.23 1018.15 1018.04 1017.90 1017.75 1017.60 1017.44 1017.26 1017.06 1016.83 1016.54 1016.19
1017.87 1018.14 1018.44 1018.75 1019.03 1019.28 1019.45 1019.56 1019.62 1019.63 1019.63 1019.65 1019.70 1019.79 1019.90 1020.01 1020.09 1020.12 1020.06 1019.92 1019.71 1019.44 1019.15 1018.87 1018.63 1018.44 1018.32 1018.24 1018.19 1018.16 1018.13 1018.07 1018.00 1017.91 1017.82 1017.72 1017.62 1017.52 1017.41 1017.26 1017.05 1016.78 1016.42
1017.65 1017.98 1018.33 1018.67 1018.99 1019.25 1019.44 1019.57 1019.65 1019.69 1019.72 1019.78 1019.86 1019.98 1020.12 1020.26 1020.36 1020.39 1020.34 1020.20 1019.98 1019.69 1019.38 1019.07 1018.79 1018.55 1018.38 1018.24 1018.15 1018.07 1017.99 1017.92 1017.83 1017.75 1017.68 1017.62 1017.58 1017.54 1017.48 1017.38 1017.21 1016.95 1016.59
1017.26 1017.64 1018.03 1018.41 1018.74 1019.03 1019.24 1019.40 1019.50 1019.58 1019.66 1019.76 1019.90 1020.06 1020.25 1020.42 1020.55 1020.62 1020.59 1020.46 1020.25 1019.97 1019.66 1019.34 1019.04 1018.77 1018.55 1018.37 1018.22 1018.09 1017.96 1017.84 1017.73 1017.64 1017.57 1017.53 1017.52 1017.51 1017.50 1017.43 1017.29 1017.05 1016.68
1016.74 1017.17 1017.59 1018.00 1018.37 1018.68 1018.92 1019.11 1019.26 1019.38 1019.51 1019.66 1019.85 1020.07 1020.31 1020.53 1020.70 1020.81 1020.81 1020.73 1020.55 1020.30 1020.01 1019.70 1019.40 1019.12 1018.87 1018.65 1018.45 1018.26 1018.08 1017.91 1017.76 1017.64 1017.55 1017.50 1017.48 1017.49 1017.48 1017.43 1017.30 1017.06 1016.69
1016.16 1016.63 1017.10 1017.55 1017.95 1018.30 1018.58 1018.80 1018.99 1019.16 1019.35 1019.55 1019.79 1020.06 1020.35 1020.61 1020.83 1020.98 1021.04 1021.00 1020.87 1020.66 1020.41 1020.13 1019.84 1019.57 1019.31 1019.06 1018.83 1018.59 1018.37 1018.15 1017.94 1017.77 1017.64 1017.56 1017.51 1017.49 1017.47 1017.40 1017.26 1017.02 1016.65
1015.61 1016.13 1016.65 1017.15 1017.59 1017.98 1018.30 1018.57 1018.80 1019.02 1019.24 1019.49 1019.77 1020.08 1020.40 1020.70 1020.96 1021.14 1021.25 1021.25 1021.17 1021.02 1020.81 1020.57 1020.32 1020.07 1019.81 1019.56 1019.30 1019.04 1018.78 1018.51 1018.26 1018.04 1017.86 1017.73 1017.63 1017.57 1017.50 1017.40 1017.23 1016.96 1016.58
1015.19 1015.76 1016.33 1016.88 1017.38 1017.81 1018.18 1018.49 1018.75 1019.00 1019.25 1019.52 1019.83 1020.15 1020.48 1020.80 1021.08 1021.29 1021.42 1021.47 1021.44 1021.33 1021.17 1020.98 1020.76 1020.54 1020.30 1020.05 1019.80 1019.53 1019.24 1018.95 1018.67 1018.41 1018.19 1018.00 1017.85 1017.73 1017.61 1017.46 1017.25 1016.95 1016.55
1014.95 1015.58 1016.21 1016.81 1017.36 1017.84 1018.24 1018.58 1018.87 1019.13 1019.39 1019.66 1019.96 1020.28 1020.60 1020.92 1021.19 1021.41 1021.56 1021.63 1021.62 1021.55 1021.44 1021.28 1021.10 1020.90 1020.69 1020.47 1020.23 1019.96 1019.68 1019.39 1019.10 1018.83 1018.58 1018.36 1018.17 1017.99 1017.81 1017.61 1017.35 1017.02 1016.59
1014.94 1015.62 1016.30 1016.95 1017.55 1018.06 1018.49 1018.84 1019.13 1019.39 1019.63 1019.89 1020.16 1020.45 1020.74 1021.03 1021.29 1021.49 1021.64 1021.71 1021.73 1021.68 1021.58 1021.45 1021.30 1021.13 1020.95 1020.75 1020.53 1020.29 1020.04 1019.77 1019.50 1019.23 1018.99 1018.76 1018.55 1018.34 1018.13 1017.88 1017.58 1017.21 1016.75
1015.15 1015.87 1016.59 1017.28 1017.90 1018.43 1018.87 1019.22 1019.50 1019.74 1019.95 1020.17 1020.40 1020.64 1020.90 1021.14 1021.36 1021.54 1021.67 1021.74 1021.75 1021.70 1021.62 1021.50 1021.37 1021.21 1021.05 1020.87 1020.68 1020.47 1020.26 1020.03 1019.81 1019.59 1019.37 1019.17 1018.97 1018.76 1018.53 1018.26 1017.93 1017.53 1017.04
1015.53 1016.28 1017.02 1017.73 1018.35 1018.89 1019.32 1019.66 1019.92 1020.12 1020.30 1020.47 1020.65 1020.85 1021.05 1021.25 1021.43 1021.57 1021.68 1021.73 1021.73 1021.68 1021.59 1021.47 1021.34 1021.19 1021.03 1020.87 1020.70 1020.53 1020.36 1020.19 1020.02 1019.86 1019.71 1019.56 1019.40 1019.22 1019.01 1018.74 1018.40 1017.98 1017.48
1016.04 1016.79 1017.54 1018.23 1018.85 1019.37 1019.78 1020.09 1020.33 1020.50 1020.64 1020.77 1020.90 1021.05 1021.20 1021.36 1021.50 1021.62 1021.69 1021.72 1021.71 1021.65 1021.55 1021.42 1021.28 1021.12 1020.96 1020.80 1020.65 1020.50 1020.37 1020.26 1020.16 1020.07 1020.00 1019.92 1019.82 1019.69 1019.52 1019.28 1018.95 1018.53 1018.03
Thickness
5732 5731 5729 5728 5727 5726 5725 5724 5724 5723 5722 5722 5721 5720 5719 5718 5716 5713 5712 5712 5712 5713 5713 5713 5713 5714 5713 5713 5713 5713 5713 5713 5713 5714 5714 5714 5714 5715 5715 5716 5716 5717 5718
5729 5727 5726 5724 5723 5722 5721 5721 5720 5719 5718 5717 5716 5715 5714 5714 5712 5710 5708 5707 5707 5707 5708 5708 5709 5709 5708 5708 5708 5708 5708 5708 5708 5708 5709 5709 5709 5709 5710 5711 5711 5712 5713
5726 5724 5722 5720 5719 5719 5718 5717 5716 5715 5714 5713 5711 5710 5710 5709 5708 5707 5705 5703 5702 5702 5702 5703 5703 5704 5704 5704 5704 5704 5703 5703 5702 5703 5703 5703 5704 5704 5705 5706 5706 5707 5708
5722 5720 5718 5717 5716 5715 5714 5712 5710 5709 5708 5707 5706 5706 5705 5705 5704 5703 5701 5700 5699 5697 5697 5697 5698 5698 5699 5701 5700 5699 5698 5697 5697 5697 5697 5698 5698 5699 5699 5700 5701 5702 5702
5718 5716 5714 5713 5712 5710 5709 5708 5705 5704 5703 5702 5702 5701 5701 5700 5699 5699 5697 5696 5695 5693 5692 5692 5692 5693 5694 5695 5695 5693 5692 5692 5692 5692 5692 5692 5693 5694 5694 5695 5697 5698 5698
5713 5712 5711 5709 5708 5705 5703 5702 5700 5700 5699 5699 5699 5697 5697 5696 5695 5694 5693 5692 5691 5689 5689 5688 5687 5687 5688 5688 5688 5687 5687 5687 5687 5687 5687 5687 5688 5688 5689 5691 5692 5693 5693
5708 5707 5706 5705 5703 5700 5698 5697 5695 5694 5694 5695 5692 5689 5691 5692 5690 5689 5689 5687 5686 5685 5685 5684 5683 5682 5682 5682 5682 5682 5682 5682 5682 5682 5682 5682 5682 5683 5684 5686 5686 5688 5689
5704 5703 5701 5700 5698 5696 5694 5692 5690 5687 5687 5689 5685 5681 5677 5679 5681 5685 5683 5682 5681 5680 5680 5680 5679 5678 5677 5676 5676 5676 5676 5677 5677 5677 5677 5677 5677 5678 5679 5680 5681 5682 5683
5698 5698 5697 5696 5694 5692 5689 5688 5686 5683 5680 5681 5682 5677 5670 5666 5670 5675 5677 5676 5676 5675 5675 5675 5674 5673 5672 5671 5671 5671 5671 5671 5672 5672 5672 5672 5672 5673 5674 5675 5676 5677 5678
5693 5692 5691 5690 5689 5688 5685 5684 5682 5680 5677 5674 5675 5675 5674 5670 5664 5662 5667 5670 5671 5670 5670 5670 5669 5668 5667 5666 5665 5665 5665 5665 5666 5667 5667 5667 5667 5667 5668 5669 5670 5671 5672
5688 5687 5686 5685 5684 5683 5681 5679 5677 5675 5673 5671 5669 5668 5668 5666 5665 5659 5656 5659 5662 5664 5665 5665 5664 5662 5662 5661 5660 5659 5659 5659 5660 5661 5661 5661 5661 5662 5662 5663 5664 5665 5667
5682 5682 5681 5680 5679 5678 5677 5675 5673 5671 5669 5667 5665 5664 5661 5658 5656 5655 5652 5652 5653 5656 5659 5660 5658 5657 5656 5655 5654 5654 5654 5654 5654 5655 5655 5655 5655 5656 5657 5657 5658 5660 5661
5674 5675 5675 5674 5673 5673 5671 5670 5668 5666 5664 5662 5660 5658 5657 5656 5655 5653 5649 5647 5647 5649 5652 5653 5653 5652 5651 5650 5649 5648 5648 5648 5648 5649 5649 5649 5649 5650 5651 5651 5652 5654 5655
5669 5669 5669 5668 5667 5666 5666 5664 5662 5661 5659 5657 5656 5654 5652 5652 5651 5649 5646 5642 5639 5640 5642 5643 5646 5646 5645 5644 5643 5642 5642 5641 5642 5643 5643 5644 5644 5644 5644 5645 5646 5647 5649
5665 5664 5663 5662 5661 5660 5659 5658 5656 5654 5653 5652 5650 5649 5647 5646 5646 5645 5643 5639 5634 5629 5630 5634 5636 5638 5638 5637 5637 5636 5635 5635 5636 5636 5637 5637 5637 5638 5638 5639 5640 5641 5642
5658 5657 5657 5656 5654 5653 5652 5651 5649 5649 5647 5645 5644 5642 5640 5639 5639 5637 5636 5634 5631 5627 5624 5628 5629 5631 5631 5630 5630 5630 5630 5630 5630 5630 5630 5631 5631 5631 5632 5632 5633 5634 5635
5651 5650 5649 5648 5647 5646 5645 5643 5642 5641 5640 5638 5637 5635 5633 5632 5630 5628 5627 5626 5624 5622 5618 5620 5623 5624 5624 5623 5623 5623 5623 5623 5623 5623 5624 5624 5624 5624 5624 5625 5626 5627 5628
5644 5643 5642 5640 5639 5637 5636 5635 5633 5633 5632 5630 5629 5627 5625 5624 5622 5620 5619 5617 5616 5616 5613 5612 5614 5615 5615 5616 5616 5616 5616 5616 5616 5616 5617 5617 5617 5617 5617 5618 5618 5619 5621
5636 5635 5634 5632 5630 5629 5628 5627 5626 5625 5624 5623 5622 5619 5617 5616 5613 5612 5610 5608 5607 5608 5606 5605 5605 5606 5607 5608 5608 5609 5609 5609 5609 5609 5609 5609 5610 5610 5610 5610 5611 5612 5614
5627 5627 5626 5625 5623 5621 5620 5618 5617 5616 5616 5615 5614 5612 5610 5608 5605 5603 5602 5599 5599 5597 5597 5596 5596 5597 5597 5599 5599 5598 5599 5600 5601 5602 5602 5603 5603 5603 5603 5604 5604 5605 5606
5619 5618 5617 5616 5615 5613 5611 5609 5608 5607 5606 5606 5605 5604 5603 5601 5599 5596 5594 5591 5589 5588 5587 5587 5586 5586 5587 5588 5588 5589 5589 5591 5593 5594 5594 5595 5595 5596 5596 5596 5597 5598 5599
5609 5608 5607 5606 5605 5603 5602 5600 5598 5597 5597 5596 5595 5594 5593 5591 5590 5588 5586 5584 5582 5580 5577 5577 5577 5576 5577 5578 5580 5581 5580 5580 5581 5586 5585 5586 5588 5588 5589 5589 5590 5591 5592
5599 5598 5597 5596 5594 5592 5591 5590 5589 5587 5587 5586 5585 5583 5583 5582 5580 5578 5577 5576 5574 5573 5572 5570 5569 5569 5569 5570 5571 5572 5572 5572 5573 5576 5576 5577 5579 5579 5581 5582 5583 5584 5585
5589 5587 5586 5585 5583 5582 5581 5580 5578 5577 5576 5575 5574 5573 5572 5570 5569 5567 5566 5565 5564 5563 5563 5563 5563 5563 5564 5564 5564 5564 5564 5565 5566 5567 5568 5566 5569 5571 5573 5574 5575 5576 5577
5578 5577 5576 5574 5572 5571 5570 5569 5568 5566 5565 5565 5564 5562 5561 5559 5558 5557 5556 5554 5553 5553 5554 5554 5555 5556 5556 5556 5556 5555 5554 5554 5555 5557 5559 5558 5560 5561 5563 5565 5567 5568 5570
5568 5567 5565 5564 5562 5560 5559 5558 5556 5555 5554 5553 5552 5552 5550 5548 5547 5546 5545 5544 5542 5543 5543 5544 5545 5546 5546 5547 5547 5546 5546 5545 5546 5546 5549 5549 5549 5550 5551 5555 5557 5559 5560